Location: Newark
(52.8300°N, 8.0000°E)
Time: 13:42:57
(UTC+00:00)

STARLINK-1125 - Pass Details

Date: 29 January 2020
Orbit: 348 x 351 km, 53.0° (Epoch: 17 February)

Event Time Altitude Azimuth Distance (km) Brightness Sun altitude
Rises 17:48:40 0° 284° (WNW) 2,166 8.0 -15.3°
Reaches altitude 10° 17:50:45 10° 276° (W) 1,321 6.8 -15.6°
Maximum altitude 17:53:32 40° 205° (SSW) 541 3.8 -16.1°
Enters shadow 17:54:53 23° 150° (SSE) 796 4.2 -16.3°
